Location: Rosenheim
(47.8537°N, 12.1196°E)
Time: 19:06:38
(UTC+01:00)

ISS - Visible Passes

Search period start: 11 December 2025 00:00
Search period end: 21 December 2025 00:00
Orbit: 416 x 420 km, 51.6° (Epoch: 11 December)

Date Brightness Start Highest point End Pass type
(mag) Time Alt. Az. Time Alt. Az. Time Alt. Az.
12 Dec -0.4 06:27:10 10° SSE 06:28:46 13° SE 06:30:24 10° ESE visible
13 Dec -2.4 07:13:54 10° SW 07:17:08 44° SSE 07:20:22 10° ENE visible
14 Dec -1.7 06:26:16 10° SSW 06:29:14 29° SE 06:32:13 10° E visible
15 Dec -1.1 05:38:53 10° S 05:41:22 19° SE 05:43:52 10° E visible
15 Dec -3.7 07:14:25 10° WSW 07:17:48 89° NNW 07:21:11 10° ENE visible
16 Dec -0.6 04:53:40 12° SE 04:53:40 12° SE 04:55:01 10° ESE visible
16 Dec -3.4 06:26:39 12° SW 06:29:46 65° SSE 06:33:07 10° ENE visible
17 Dec -2.8 05:41:11 39° S 05:41:44 43° SSE 05:44:57 10° ENE visible
17 Dec -3.5 07:15:10 10° W 07:18:29 54° NNW 07:21:49 10° ENE visible
18 Dec -0.9 04:55:29 18° E 04:55:29 18° E 04:56:40 10° E visible
18 Dec -3.8 06:28:26 24° W 06:30:19 68° NNW 06:33:40 10° ENE visible
19 Dec -3.5 05:42:33 67° ENE 05:42:33 67° ENE 05:45:32 10° ENE visible
19 Dec -3.2 07:15:53 10° WNW 07:19:07 42° N 07:22:23 10° ENE visible
20 Dec -0.8 04:56:30 16° ENE 04:56:30 16° ENE 04:57:20 10° ENE visible
20 Dec -3.3 06:29:26 28° WNW 06:30:51 46° N 06:34:08 10° ENE visible
